Location: Bemmer
(51.5498°N, 5.6249°E)
Time: 13:58:50
(UTC+00:00)

Lacrosse 4 Rocket - Pass Details

Date: 03 March 2021
Orbit: 537 x 620 km, 68.0° (Epoch: 11 April)

Event Time Altitude Azimuth Distance (km) Brightness Sun altitude
Rises 19:11:22 0° 183° (S) 2,825 4.9 -17.8°
Reaches altitude 10° 19:13:48 10° 172° (S) 1,942 3.9 -18.1°
Enters shadow 19:14:33 14° 166° (SSE) 1,695 3.5 -18.3°
